FW4323 Watertown MA US current weather conditions

sailwx.info

Wind from 181 at 4 knots gusting 13

Air temperature 27.2° C
Dewpoint 22.2° C

Last reported at 2020-Jul-11 23:00 UTC.
Time now 2020-Jul-11 23:47 UTC

Location: N 42°22' W 071°12'.
View on Google Maps.

See reports from other nearby stations

  
Tides and Currents Weather Stations Pressure Air Temp Water Temp Dewpoint Dewpoint Depression Visibility Wind Speed Wind Dir Waves Ship Positions
date/time (UTC)wind fromknots sea level pressurealtimeterstation pressurevisibilityair tempwater tempwave heightnotes
2020-Jul-11 23:00 181 4 gusting 13 27.2
2020-Jul-11 22:46 222 5 gusting 12 27.8
2020-Jul-11 22:32 171 7 gusting 13 28.9
2020-Jul-11 22:16 173 7 gusting 15 29.4
2020-Jul-11 22:01 190 4 gusting 10 30.0
2020-Jul-11 21:45 187 6 gusting 17 29.4
2020-Jul-11 21:30 187 6 gusting 13 30.0
2020-Jul-11 21:16 140 6 gusting 13 29.4
2020-Jul-11 21:00 190 6 gusting 19 30.6
2020-Jul-11 20:45 184 9 gusting 18 30.6
2020-Jul-11 20:30 164 7 gusting 17 31.1
2020-Jul-11 20:16 219 8 gusting 17 30.6
2020-Jul-11 20:00 175 8 gusting 18 30.6
2020-Jul-11 19:45 190 7 gusting 17 30.6
2020-Jul-11 19:30 160 6 gusting 15 31.1
2020-Jul-11 19:15 196 6 gusting 19 31.7
2020-Jul-11 19:01 190 7 gusting 15 31.7
2020-Jul-11 18:45 167 9 gusting 19 31.1
2020-Jul-11 18:30 187 6 gusting 16 31.7
2020-Jul-11 18:15 229 4 gusting 17 31.7
2020-Jul-11 18:00 196 6 gusting 18 31.1
2020-Jul-11 17:45 175 6 gusting 15 31.1
2020-Jul-11 17:30 148 6 gusting 15 31.7
2020-Jul-11 17:15 159 9 gusting 19 31.1
2020-Jul-11 17:00 178 10 gusting 20 31.1
2020-Jul-11 16:45 172 6 gusting 13 31.1
2020-Jul-11 16:15 162 7 gusting 18 30.6
2020-Jul-11 16:00 197 8 gusting 15 30.6
2020-Jul-11 15:45 227 6 gusting 19 30.0
2020-Jul-11 15:32 201 4 gusting 13 29.4
2020-Jul-11 15:15 184 6 gusting 13 29.4
2020-Jul-11 15:01 197 6 gusting 17 28.9
2020-Jul-11 14:46 213 8 gusting 19 28.3
2020-Jul-11 14:31 212 5 gusting 15 27.8
2020-Jul-11 14:16 186 3 gusting 11 27.2
2020-Jul-11 14:01 261 5 gusting 16 27.2
2020-Jul-11 13:45 169 4 gusting 11 26.7
2020-Jul-11 13:31 182 4 gusting 13 26.1
2020-Jul-11 13:16 165 7 gusting 15 26.1
2020-Jul-11 13:01 182 6 gusting 17 25.6
2020-Jul-11 12:46 223 7 gusting 16 25.6
2020-Jul-11 12:30 192 7 gusting 17 25.0
2020-Jul-11 12:15 185 7 gusting 15 25.0
2020-Jul-11 12:00 160 6 gusting 13 24.4
2020-Jul-11 11:46 194 6 gusting 15 24.4
2020-Jul-11 11:30 173 3 gusting 12 23.9
2020-Jul-11 11:15 215 6 gusting 13 23.9
2020-Jul-11 11:00 235 6 gusting 11 23.3
2020-Jul-11 10:45 173 6 gusting 10 23.3
2020-Jul-11 10:30 173 3 gusting 10 23.3
2020-Jul-11 10:15 188 4 gusting 8 23.3
2020-Jul-11 10:00 176 5 gusting 11 22.8
2020-Jul-11 09:45 211 4 gusting 9 22.8
2020-Jul-11 09:30 186 6 gusting 10 22.8
2020-Jul-11 09:15 167 4 gusting 10 23.3
2020-Jul-11 09:00 152 5 gusting 11 22.8
2020-Jul-11 08:45 139 3 gusting 9 22.8
2020-Jul-11 08:33 145 4 gusting 7 22.8
2020-Jul-11 08:15 164 1 gusting 9 22.8
2020-Jul-11 08:01 180 1 gusting 7 22.8
2020-Jul-11 07:46 182 2 gusting 8 22.8
2020-Jul-11 07:32 196 2 gusting 9 22.8
2020-Jul-11 07:16 165 2 gusting 6 22.8
2020-Jul-11 07:03 190 3 gusting 6 22.8
2020-Jul-11 06:47 146 2 gusting 10 22.8
2020-Jul-11 06:31 178 2 gusting 6 23.3
2020-Jul-11 06:16 226 0 gusting 6 23.3
2020-Jul-11 06:01 152 3 gusting 6 23.3
2020-Jul-11 05:46 179 2 gusting 6 23.3
2020-Jul-11 05:31 178 3 gusting 9 23.3
2020-Jul-11 05:16 180 4 gusting 7 23.3
2020-Jul-11 05:01 161 5 gusting 10 23.3
2020-Jul-11 04:46 160 2 gusting 6 23.3
2020-Jul-11 04:31 188 2 gusting 9 22.8
2020-Jul-11 04:15 163 2 gusting 8 22.8
2020-Jul-11 04:01 088 2 gusting 11 22.8
2020-Jul-11 03:46 121 4 gusting 9 22.8
2020-Jul-11 03:31 108 5 gusting 10 22.8
2020-Jul-11 03:15 098 2 gusting 7 22.8
2020-Jul-11 03:00 080 1 gusting 8 22.2
2020-Jul-11 02:45 094 1 gusting 8 22.2
2020-Jul-11 02:31 078 3 gusting 7 22.2
2020-Jul-11 02:15 062 3 gusting 11 22.2
2020-Jul-11 02:00 082 3 gusting 8 22.8
2020-Jul-11 01:45 086 4 gusting 8 22.8
2020-Jul-11 01:31 094 3 gusting 9 22.8
2020-Jul-11 01:15 051 3 gusting 8 22.8
2020-Jul-11 01:00 086 2 gusting 7 22.8
2020-Jul-11 00:45 084 2 gusting 6 23.3
2020-Jul-11 00:30 093 2 gusting 7 23.3
2020-Jul-11 00:15 069 0 gusting 6 22.8
2020-Jul-11 00:00 092 2 gusting 6 23.3
2020-Jul-10 23:45 074 1 gusting 6 23.3
2020-Jul-10 23:30 068 0 gusting 6 23.3
2020-Jul-10 23:15 056 2 gusting 6 23.3
2020-Jul-10 23:00 078 2 gusting 6 23.3
2020-Jul-10 22:45 059 1 gusting 7 23.3
2020-Jul-10 22:30 105 2 gusting 7 23.3
2020-Jul-10 22:00 087 3 gusting 9 23.9
2020-Jul-10 21:45 091 3 gusting 8 24.4
2020-Jul-10 21:30 078 5 gusting 10 24.4
2020-Jul-10 21:15 042 3 gusting 10 24.4
2020-Jul-10 21:01 086 4 gusting 9 25.0
2020-Jul-10 20:32 087 5 gusting 10 25.0
2020-Jul-10 20:15 084 4 gusting 8 26.1
2020-Jul-10 20:00 071 5 gusting 10 26.1
2020-Jul-10 19:45 092 3 gusting 11 27.8
2020-Jul-10 19:32 106 4 gusting 10 27.2
2020-Jul-10 19:18 108 2 gusting 8 27.2
2020-Jul-10 19:02 116 3 gusting 13 27.8
2020-Jul-10 18:46 014 5 gusting 11 28.3
2020-Jul-10 18:31 128 2 gusting 8 28.3
2020-Jul-10 18:16 078 2 gusting 12 27.8
2020-Jul-10 18:01 088 4 gusting 10 28.3
2020-Jul-10 17:46 069 5 gusting 9 28.9
2020-Jul-10 17:31 075 6 gusting 11 28.9
2020-Jul-10 17:16 085 3 gusting 10 28.9
2020-Jul-10 17:01 085 3 gusting 8 29.4
2020-Jul-10 16:46 182 3 gusting 8 30.0
2020-Jul-10 16:31 136 1 gusting 9 29.4
2020-Jul-10 16:16 131 3 gusting 8 29.4
2020-Jul-10 16:01 175 6 gusting 12 30.6
2020-Jul-10 15:46 127 2 gusting 9 29.4
2020-Jul-10 15:30 135 28.9
2020-Jul-10 15:16 199 3 gusting 6 28.3
2020-Jul-10 15:01 216 3 gusting 6 27.8
2020-Jul-10 14:46 177 2 gusting 6 27.8
2020-Jul-10 14:30 117 26.7
2020-Jul-10 14:15 194 26.1
2020-Jul-10 14:00 199 3 gusting 6 25.6
2020-Jul-10 13:45 188 1 gusting 4 25.6
2020-Jul-10 13:30 184 25.0
2020-Jul-10 13:15 186 25.0
2020-Jul-10 13:00 177 1 gusting 6 24.4
2020-Jul-10 12:45 181 0 gusting 6 24.4
2020-Jul-10 12:30 177 24.4
2020-Jul-10 12:15 176 23.9
2020-Jul-10 12:01 186 23.9
2020-Jul-10 11:46 162 23.9
2020-Jul-10 11:32 162 1 gusting 6 23.3
2020-Jul-10 11:15 219 22.8
2020-Jul-10 11:01 198 22.2
2020-Jul-10 10:46 205 22.2
2020-Jul-10 10:31 159 22.2
2020-Jul-10 10:16 255 21.7
2020-Jul-10 10:01 258 21.7
2020-Jul-10 09:45 258 21.7
2020-Jul-10 09:31 263 2 gusting 5 21.7
2020-Jul-10 09:17 198 0 gusting 5 21.7
2020-Jul-10 09:00 207 0 gusting 2 21.7
2020-Jul-10 08:45 259 3 gusting 6 21.7
2020-Jul-10 08:30 174 21.7
2020-Jul-10 08:16 200 0 gusting 3 21.7
2020-Jul-10 08:01 248 21.7
2020-Jul-10 07:46 248 22.2
2020-Jul-10 07:30 248 22.2
2020-Jul-10 07:15 248 22.2
2020-Jul-10 07:01 248 22.2
2020-Jul-10 06:46 248 22.2
2020-Jul-10 06:30 189 22.8
2020-Jul-10 06:16 254 22.8
2020-Jul-10 06:00 254 22.8
2020-Jul-10 05:45 250 22.8
2020-Jul-10 05:31 254 23.3
2020-Jul-10 05:16 174 23.3
2020-Jul-10 05:01 249 0 gusting 4 23.3
2020-Jul-10 04:46 254 1 gusting 5 23.9
2020-Jul-10 04:31 171 0 gusting 4 23.9
2020-Jul-10 04:16 240 0 gusting 3 23.9
2020-Jul-10 04:00 245 24.4
2020-Jul-10 03:45 232 24.4
2020-Jul-10 03:30 263 24.4
2020-Jul-10 03:15 173 0 gusting 4 25.0
2020-Jul-10 03:00 248 1 gusting 5 25.0
2020-Jul-10 02:45 176 0 gusting 5 25.0
2020-Jul-10 02:30 262 1 gusting 5 25.6
2020-Jul-10 02:15 284 2 gusting 7 25.6
2020-Jul-10 02:00 175 1 gusting 6 26.1
2020-Jul-10 01:45 175 3 gusting 8 26.1
2020-Jul-10 01:30 167 2 gusting 7 26.7
2020-Jul-10 01:15 188 1 gusting 5 26.7
2020-Jul-10 01:00 175 2 gusting 7 26.7
2020-Jul-10 00:45 194 2 gusting 9 27.2
2020-Jul-10 00:30 207 2 gusting 8 27.8
2020-Jul-10 00:15 227 2 gusting 6 27.8
2020-Jul-10 00:00 186 4 gusting 10 28.3
2020-Jul-09 23:45 225 5 gusting 11 28.9
2020-Jul-09 23:30 173 5 gusting 12 28.9
2020-Jul-09 23:15 195 5 gusting 9 29.4
2020-Jul-09 23:00 182 4 gusting 11 30.0